Regional Weather Roundup
Issued by NWS

Home | Current Version | Previous Version | Text Only | Print | Product List | Glossary On
Versions: 1 2 3 4 5 6 7 8 9 10 11 12 13 14 15 16 17 18 19 20 21 22 23 24 25 26 27 28 29 30 31 32 33 34 35 36 37 38 39 40 41 42 43 44 45 46 47 48 49 50
000
ASUS45 KSLC 220210
RWRUT

UTAH REGIONAL WEATHER ROUNDUP
NATIONAL WEATHER SERVICE SALT LAKE CITY UT
700 PM MST TUE FEB 21 2017

UTZ001>011-023>025-220300-

NORTHERN UTAH

CITY           SKY/WX    TMP DP  RH WIND       PRES   REMARKS
BRIGHAM CITY     N/A     39  34  81 NW7       30.05F WCI  34
HILL AFB       LGT RAIN  37  36  93 N13G22    30.04R WCI  29
LOGAN          LGT RAIN  37  34  89 NE13      30.02F WCI  29
OGDEN          LGT RAIN  37  35  92 N15       30.04R WCI  28
SALT LAKE CITY RAIN      42  38  85 NW21      30.06R FOG
TOOELE VALLEY  RAIN      37  36  93 N14       30.09R WCI  29
WENDOVER       MOCLDY    43  27  52 NW15      30.02R
HEBER CITY     LGT RAIN  48  30  49 SW16G30   29.91R
WEST JORDAN    CLOUDY    41  41 100 NW31G37   30.06R

$$

UTZ011>015-024>027-220300-

CENTRAL/NORTHEAST UTAH

CITY           SKY/WX    TMP DP  RH WIND       PRES   REMARKS
PROVO AIRPORT  CLOUDY    54  36  50 SW20G28   29.95F
MOAB/CANYONLAN CLOUDY    58  36  43 SW14      30.01S
DELTA          CLEAR     52  32  46 S28G33    29.99F
PRICE          CLEAR     41  38  89 N7        30.01S
RICHFIELD      CLEAR     52  25  35 S21G28    30.05R
ROOSEVELT      CLEAR     46  36  66 W8        29.98S
VERNAL         CLOUDY    46  34  62 S13       29.95F

$$

UTZ013>016-019>022-027-220300-

SOUTHERN UTAH

CITY           SKY/WX    TMP DP  RH WIND       PRES   REMARKS
BRYCE CANYON   CLOUDY    39  31  72 SW21      30.19F WCI  29
CEDAR CITY     MOCLDY    49  33  54 S22G35    30.09F
MILFORD        PTCLDY    50  36  58 SW16      30.09R
ST GEORGE      MOCLDY    61  44  53 S9        30.10F
HANKSVILLE     MOCLDY    59  32  36 SW20G25   30.05S
KANAB          CLEAR     48  41  76 W1        30.19F
BLANDING       CLOUDY    51  36  57 N5        30.26S

$$

REGIONAL REPORTS     COLORADO/ARIZONA

CITY           SKY/WX    TMP DP  RH WIND       PRES   REMARKS
CRAIG, CO      CLOUDY    50  28  42 SW24G40   29.96F
GRAND JUNCTION CLOUDY    55  36  48 SE10      30.05F
RIFLE, CO      CLOUDY    51  35  54 W10       30.05S
MONTROSE, CO   CLOUDY    53  29  39 CALM      30.15R
CORTEZ, CO     CLOUDY    51  38  60 S8        30.22S
COLORADO CITY    N/A     52  43  71 SW7       30.19S
PAGE, AZ       MOCLDY    60  35  39 S5        30.13F
GRAND CANYON   LGT RAIN  45  41  86 S9        30.28F
KINGMAN, AZ    MOCLDY    56  45  66 SW6       30.19F
FLAGSTAFF, AZ  MOCLDY    48  40  73 W10       30.33R

$$

REGIONAL REPORTS    NEVADA/IDAHO/WYOMING

CITY           SKY/WX    TMP DP  RH WIND       PRES   REMARKS
LAS VEGAS, NV  MOCLDY    64  40  41 S8        30.09S
ELY, NY        CLOUDY    45  29  53 W12G25    30.02R
ELKO, NV       CLOUDY    34  31  88 SW6       30.06S WCI  29
POCATELLO, ID  CLOUDY    39  30  70 SW13      29.98R WCI  31
BURLEY, ID     CLOUDY    43  29  57 SW18G24   30.00R
FORT BRIDGER,  SNOW      32  32 100 NW17G25   30.00R VSB 1/2 WCI  21
EVANSTON, WY   LGT SNOW  31  28  89 N21       29.98R FOG     WCI  18
ROCK SPRINGS,  CLOUDY    38  30  73 W24G30    29.93R WCI  27
KEMMERER, WY   SNOW      30  28  93 W24G31    29.98R VSB 1/2 WCI  16

$$



USA.gov is the U.S. government's official web portal to all federal, state and local government web resources and services.